Regional Weather Roundup
Issued by NWS

Home | Current Version | Previous Version | Graphics & Text | Print | Product List | Glossary On
Versions: 1 2 3 4 5 6 7 8 9 10 11 12 13 14 15 16 17 18 19 20 21 22 23 24 25
000
ASUS45 KCYS 221610
RWRWY

WYOMING REGIONAL WEATHER ROUNDUP
NATIONAL WEATHER SERVICE CHEYENNE WY
1000 AM MDT WED MAR 22 2017

NOTE:  "FAIR" INDICATES FEW OR NO CLOUDS BELOW 12,000 FEET
WITH NO SIGNIFICANT WEATHER AND/OR OBSTRUCTIONS TO VISIBILITY.

WYZ001-221700-
YELLOWSTONE NATIONAL PARK

CITY           SKY/WX    TMP DP  RH WIND       PRES   REMARKS
LK YELLOWSTONE NOT AVBL
W YELLOWSTONE  NOT AVBL

$$
WYZ002>013-054>058-071-098>099-221700-
NORTHERN WYOMING

CITY           SKY/WX    TMP DP  RH WIND       PRES   REMARKS
JACKSON        NOT AVBL
CODY           NOT AVBL
GREYBULL       NOT AVBL
WORLAND        NOT AVBL
SHERIDAN       NOT AVBL
BUFFALO        NOT AVBL
GILLETTE       NOT AVBL
HULETT         FAIR      55  32  41 SW15G22   29.82
NEWCASTLE      FAIR      45  30  57 SE18G25   29.91

$$
WYZ014>020-022>026-101>103-221700-
CENTRAL WYOMING

CITY           SKY/WX    TMP DP  RH WIND       PRES   REMARKS
BIG PINEY      NOT AVBL
PINEDALE       RAIN      36  34  93 S12       30.01  WCI  27
DUBOIS         FAIR      43  32  65 N14G20    29.92
LANDER         NOT AVBL
RIVERTON       NOT AVBL
CASPER         NOT AVBL
DOUGLAS        NOT AVBL

$$
WYZ021-027>030-104>119-221700-
SOUTHERN WYOMING

CITY           SKY/WX    TMP DP  RH WIND       PRES   REMARKS
EVANSTON       NOT AVBL
KEMMERER         N/A     41  36  81 S7        29.99
ROCK SPRINGS   NOT AVBL
DIXON            N/A     58  27  30 S18       30.03
RAWLINS        NOT AVBL
SARATOGA       PTSUNNY   59  25  27 S9G21     30.02
LARAMIE        NOT AVBL
CHEYENNE       NOT AVBL
TORRINGTON     NOT AVBL

$$




USA.gov is the U.S. government's official web portal to all federal, state and local government web resources and services.